M I D A S
Marine Information and Data Acquisition System
Tripno 1099 of the Zeeleeuw from 2006-03-30 06:32:14 to 2006-03-30 10:47:52
Back to CruiseResearch ActivitiesStationsMapUnderway DataData graphs

EquipmentUnitsComment
TimeDGPSUTC
LatitudeDGPSDM.mWGS84
LongitudeDGPSDM.mWGS84
HeadingGyrodeg 
SOGDGPSknotsSpeed over ground
COGDGPSdegCourse over ground
DepthEcho soundermeters200 kHz
Missing or incorrect values are displayed as -999
Navigation data collected by the RV Zeeleeuw from 2006-03-30 06:32:05 to 2006-03-30 11:00:34
                                                                                    Next 1000 lines
Time Latitude Longitude Heading SOG COG Depth
2006-03-30 06:32:15 51°13.599 2°56.09 115.5 0.7 302 5.9
2006-03-30 06:32:20 51°13.6 2°56.088 115.9 1 297 6.2
2006-03-30 06:32:25 51°13.601 2°56.085 116.3 1.2 301 6.4
2006-03-30 06:32:30 51°13.602 2°56.083 116.8 1.4 300 6.5
2006-03-30 06:32:35 51°13.603 2°56.08 117.3 1.6 301 6.4
2006-03-30 06:32:40 51°13.604 2°56.076 117.3 1.7 301 -999
2006-03-30 06:32:46 51°13.606 2°56.072 117.3 1.8 301 -999
2006-03-30 06:32:51 51°13.607 2°56.068 117.3 2 299 -999
2006-03-30 06:32:56 51°13.608 2°56.064 117.2 2.1 300 -999
2006-03-30 06:33:00 51°13.609 2°56.061 117.2 2.2 300 -999
2006-03-30 06:33:06 51°13.611 2°56.056 117.1 2.3 299 -999
2006-03-30 06:33:11 51°13.613 2°56.051 116.8 2.4 299 -999
2006-03-30 06:33:16 51°13.615 2°56.046 116.5 2.5 298 -999
2006-03-30 06:33:20 51°13.616 2°56.042 115.7 2.6 298 -999
2006-03-30 06:33:25 51°13.618 2°56.037 115 2.7 296 -999
2006-03-30 06:33:31 51°13.62 2°56.03 114.2 2.8 296 -999
2006-03-30 06:33:36 51°13.621 2°56.024 113.5 2.9 294 -999
2006-03-30 06:33:40 51°13.623 2°56.019 112.8 3.1 294 -999
2006-03-30 06:33:46 51°13.625 2°56.011 112.5 3.4 292 -999
2006-03-30 06:33:51 51°13.627 2°56.003 111.9 3.5 292 -999
2006-03-30 06:33:56 51°13.628 2°55.997 111.3 3.3 291 -999
2006-03-30 06:34:00 51°13.629 2°55.992 110 3 291 -999
2006-03-30 06:34:06 51°13.631 2°55.985 109.1 2.6 291 -999
2006-03-30 06:34:10 51°13.632 2°55.982 108.8 2.1 289 -999
2006-03-30 06:34:16 51°13.632 2°55.978 108.7 1.6 292 -999
2006-03-30 06:34:20 51°13.633 2°55.977 109.3 1.2 291 7.5
2006-03-30 06:34:25 51°13.633 2°55.975 110.3 0.9 294 7.5
2006-03-30 06:34:30 51°13.634 2°55.973 112.1 0.8 294 7.5
2006-03-30 06:34:35 51°13.634 2°55.972 113.2 0.8 292 7.5
2006-03-30 06:34:40 51°13.635 2°55.97 113.8 0.8 292 7.5
2006-03-30 06:34:45 51°13.635 2°55.968 113.9 1 291 -999
2006-03-30 06:34:50 51°13.636 2°55.965 113.9 1.3 291 7.5
2006-03-30 06:34:56 51°13.637 2°55.961 114.1 1.6 293 -999
2006-03-30 06:35:00 51°13.638 2°55.958 114.4 1.8 292 5.7
2006-03-30 06:35:05 51°13.639 2°55.954 114.6 2.1 294 5.2
2006-03-30 06:35:10 51°13.64 2°55.949 115 2.2 293 -999
2006-03-30 06:35:16 51°13.642 2°55.943 115.6 2.5 295 -999
2006-03-30 06:35:20 51°13.643 2°55.939 116.4 2.7 294 -999
2006-03-30 06:35:26 51°13.645 2°55.932 117.3 2.9 295 -999
2006-03-30 06:35:31 51°13.647 2°55.925 118.2 3.1 296 -999
2006-03-30 06:35:36 51°13.649 2°55.919 118.7 3.3 296 -999
2006-03-30 06:35:40 51°13.651 2°55.913 119.6 3.5 297 -999
2006-03-30 06:35:46 51°13.654 2°55.904 120.2 3.7 297 -999
2006-03-30 06:35:51 51°13.656 2°55.897 120.9 3.9 298 -999
2006-03-30 06:35:56 51°13.659 2°55.889 121.5 4 299 -999
2006-03-30 06:36:00 51°13.661 2°55.883 122.4 4.1 300 -999
2006-03-30 06:36:06 51°13.665 2°55.873 123 4.3 301 -999
2006-03-30 06:36:10 51°13.667 2°55.866 123.5 4.4 301 -999
2006-03-30 06:36:16 51°13.671 2°55.856 123.6 4.4 302 -999
2006-03-30 06:36:20 51°13.674 2°55.849 123.3 4.5 302 -999
2006-03-30 06:36:26 51°13.678 2°55.839 122.6 4.6 301 -999
2006-03-30 06:36:30 51°13.68 2°55.832 121.8 4.5 301 -999
2006-03-30 06:36:36 51°13.684 2°55.823 121 4.2 300 -999
2006-03-30 06:36:41 51°13.687 2°55.815 120.1 4 300 -999
2006-03-30 06:36:46 51°13.689 2°55.808 119.1 3.8 299 -999
2006-03-30 06:36:51 51°13.692 2°55.801 118.3 3.7 299 -999
2006-03-30 06:36:56 51°13.694 2°55.794 117.4 3.5 298 -999
2006-03-30 06:37:00 51°13.696 2°55.789 116.4 3.5 298 4.7
2006-03-30 06:37:04 51°13.697 2°55.783 115.5 3.3 297 4.8
2006-03-30 06:37:10 51°13.7 2°55.776 114.3 3.3 297 4.7
2006-03-30 06:37:16 51°13.702 2°55.768 113 3.2 295 4.7
2006-03-30 06:37:20 51°13.704 2°55.763 111.6 3.1 296 -999
2006-03-30 06:37:26 51°13.706 2°55.756 110.1 3 295 -999
2006-03-30 06:37:31 51°13.707 2°55.751 108.6 2.6 296 -999
2006-03-30 06:37:36 51°13.708 2°55.748 107 2.1 296 -999
2006-03-30 06:37:40 51°13.709 2°55.745 104.9 1.7 302 -999
2006-03-30 06:37:46 51°13.71 2°55.743 102.1 1.1 306 -999
2006-03-30 06:37:50 51°13.71 2°55.743 97.5 0.2 323 -999
2006-03-30 06:37:56 51°13.712 2°55.743 93.9 0.4 10 -999
2006-03-30 06:38:00 51°13.713 2°55.743 88.8 0.8 29 -999
2006-03-30 06:38:06 51°13.714 2°55.746 83.3 1.1 46 -999
2006-03-30 06:38:11 51°13.716 2°55.748 77.2 1.4 46 -999
2006-03-30 06:38:16 51°13.717 2°55.75 71.1 1.5 47 -999
2006-03-30 06:38:21 51°13.719 2°55.752 65.6 1.5 36 -999
2006-03-30 06:38:26 51°13.72 2°55.753 61.7 1.2 34 -999
2006-03-30 06:38:31 51°13.721 2°55.754 58.2 1 18 -999
2006-03-30 06:38:36 51°13.722 2°55.754 54.5 0.7 3 -999
2006-03-30 06:38:41 51°13.722 2°55.753 51 0.6 333 -999
2006-03-30 06:38:45 51°13.722 2°55.752 47.9 0.6 289 -999
2006-03-30 06:38:50 51°13.722 2°55.75 45 0.8 266 -999
2006-03-30 06:38:56 51°13.721 2°55.748 42.8 1 250 -999
2006-03-30 06:39:01 51°13.72 2°55.745 41 1.2 240 -999
2006-03-30 06:39:06 51°13.719 2°55.742 38.5 1.7 232 -999
2006-03-30 06:39:10 51°13.717 2°55.74 36 1.9 227 -999
2006-03-30 06:39:16 51°13.714 2°55.736 33.1 2 222 -999
2006-03-30 06:39:21 51°13.713 2°55.734 30.4 1.9 220 -999
2006-03-30 06:39:26 51°13.711 2°55.732 28.3 1.4 222 -999
2006-03-30 06:39:30 51°13.71 2°55.731 26 1 217 -999
2006-03-30 06:39:36 51°13.71 2°55.729 23.9 0.7 226 -999
2006-03-30 06:39:41 51°13.71 2°55.728 20.8 0.4 252 -999
2006-03-30 06:39:46 51°13.71 2°55.728 17.2 0.4 325 -999
2006-03-30 06:39:51 51°13.711 2°55.727 12.6 0.8 346 -999
2006-03-30 06:39:56 51°13.713 2°55.727 7 1.4 349 -999
2006-03-30 06:40:00 51°13.716 2°55.726 -999 1.8 345 -999
2006-03-30 06:40:06 51°13.719 2°55.724 351.3 2.2 341 -999
2006-03-30 06:40:11 51°13.722 2°55.721 346.2 2.6 337 -999
2006-03-30 06:40:16 51°13.726 2°55.718 341.4 3 333 -999
2006-03-30 06:40:20 51°13.73 2°55.716 338.7 3.3 333 -999
2006-03-30 06:40:26 51°13.735 2°55.71 336.9 3.8 330 -999
2006-03-30 06:40:31 51°13.74 2°55.706 336.2 4.2 331 -999
2006-03-30 06:40:36 51°13.746 2°55.701 336.2 4.6 330 -999
2006-03-30 06:40:40 51°13.751 2°55.697 336.4 5 331 -999
2006-03-30 06:40:46 51°13.759 2°55.689 336.8 5.3 331 -999
2006-03-30 06:40:51 51°13.766 2°55.683 337 5.6 330 -999
2006-03-30 06:40:56 51°13.773 2°55.677 336.8 5.9 331 -999
2006-03-30 06:41:00 51°13.779 2°55.671 336.8 6.2 331 -999
2006-03-30 06:41:06 51°13.789 2°55.663 337.4 6.4 331 -999
2006-03-30 06:41:11 51°13.797 2°55.657 338.2 6.6 333 -999
2006-03-30 06:41:16 51°13.806 2°55.65 339 6.8 334 -999
2006-03-30 06:41:20 51°13.813 2°55.645 339.8 7 335 -999
2006-03-30 06:41:26 51°13.824 2°55.637 340 7.1 336 -999
2006-03-30 06:41:31 51°13.833 2°55.63 340 7.3 336 -999
2006-03-30 06:41:36 51°13.842 2°55.624 340 7.4 336 -999
2006-03-30 06:41:41 51°13.852 2°55.617 339.8 7.5 336 -999
2006-03-30 06:41:46 51°13.861 2°55.61 340 7.6 336 -999
2006-03-30 06:41:51 51°13.871 2°55.603 340.4 7.7 336 -999
2006-03-30 06:41:56 51°13.881 2°55.596 340 7.7 336 -999
2006-03-30 06:42:00 51°13.889 2°55.591 339.8 7.7 336 -999
2006-03-30 06:42:06 51°13.901 2°55.583 340.2 7.6 337 -999
2006-03-30 06:42:10 51°13.908 2°55.578 340.4 7.5 337 -999
2006-03-30 06:42:16 51°13.92 2°55.57 340.2 7.4 336 -999
2006-03-30 06:42:20 51°13.927 2°55.564 340.1 7.4 335 -999
2006-03-30 06:42:26 51°13.938 2°55.556 340.1 7.3 336 -999
2006-03-30 06:42:31 51°13.947 2°55.55 340.1 7.2 335 -999
2006-03-30 06:42:36 51°13.956 2°55.543 339.9 7.2 335 -999
2006-03-30 06:42:40 51°13.964 2°55.538 339.9 7.2 335 -999
2006-03-30 06:42:46 51°13.975 2°55.53 340.4 7.2 336 -999
2006-03-30 06:42:51 51°13.984 2°55.524 340.7 7.1 337 -999
2006-03-30 06:42:56 51°13.993 2°55.518 340.5 7.1 336 -999
2006-03-30 06:43:01 51°14.002 2°55.512 340.4 7.1 336 -999
2006-03-30 06:43:06 51°14.011 2°55.505 341.1 7 337 7.8
2006-03-30 06:43:10 51°14.018 2°55.5 341.1 7 337 -999
2006-03-30 06:43:16 51°14.028 2°55.493 341 6.9 337 -999
2006-03-30 06:43:20 51°14.036 2°55.488 340.5 7 336 -999
2006-03-30 06:43:26 51°14.046 2°55.48 340.4 7 336 7.8
2006-03-30 06:43:30 51°14.054 2°55.475 340.4 7 335 -999
2006-03-30 06:43:36 51°14.065 2°55.467 340.2 7.1 335 -999
2006-03-30 06:43:41 51°14.074 2°55.46 339.6 7.1 335 -999
2006-03-30 06:43:46 51°14.083 2°55.453 339.2 7.2 334 -999
2006-03-30 06:43:50 51°14.09 2°55.447 338.9 7.3 334 -999
2006-03-30 06:43:56 51°14.101 2°55.439 338.5 7.3 334 -999
2006-03-30 06:44:01 51°14.11 2°55.431 338.1 7.4 333 -999
2006-03-30 06:44:06 51°14.119 2°55.424 337.6 7.4 333 -999
2006-03-30 06:44:11 51°14.128 2°55.416 336.9 7.4 332 -999
2006-03-30 06:44:16 51°14.137 2°55.408 335.9 7.5 331 -999
2006-03-30 06:44:20 51°14.144 2°55.402 335.2 7.6 330 -999
2006-03-30 06:44:26 51°14.155 2°55.392 334.5 7.7 329 -999
2006-03-30 06:44:31 51°14.165 2°55.383 333.9 7.9 329 -999
2006-03-30 06:44:36 51°14.174 2°55.373 332.9 8 328 -999
2006-03-30 06:44:40 51°14.181 2°55.365 331.6 8 327 -999
2006-03-30 06:44:46 51°14.193 2°55.353 330.5 8.1 326 -999
2006-03-30 06:44:51 51°14.202 2°55.343 329.4 8.2 324 -999
2006-03-30 06:44:56 51°14.211 2°55.332 327.7 8.3 323 -999
2006-03-30 06:45:00 51°14.219 2°55.322 326.2 8.3 322 -999
2006-03-30 06:45:06 51°14.229 2°55.308 325.5 8.4 321 -999
2006-03-30 06:45:11 51°14.238 2°55.296 324.4 8.5 319 -999
2006-03-30 06:45:16 51°14.247 2°55.284 322.9 8.5 318 -999
2006-03-30 06:45:21 51°14.255 2°55.271 321.6 8.5 316 -999
2006-03-30 06:45:26 51°14.264 2°55.257 320.3 8.5 316 -999
2006-03-30 06:45:31 51°14.272 2°55.243 318.9 8.6 314 -999
2006-03-30 06:45:36 51°14.28 2°55.229 317.3 8.7 312 -999
2006-03-30 06:45:40 51°14.286 2°55.217 315.9 8.8 311 -999
2006-03-30 06:45:46 51°14.296 2°55.199 315 9 310 -999
2006-03-30 06:45:51 51°14.304 2°55.183 314.3 9.1 310 -999
2006-03-30 06:45:56 51°14.312 2°55.168 314.2 9.1 310 -999
2006-03-30 06:46:01 51°14.321 2°55.152 314.4 9.2 310 -999
2006-03-30 06:46:05 51°14.327 2°55.14 314.9 9.3 310 -999
2006-03-30 06:46:10 51°14.336 2°55.124 315.2 9.3 310 -999
2006-03-30 06:46:15 51°14.344 2°55.109 315.7 9.3 312 8.3
2006-03-30 06:46:20 51°14.353 2°55.093 316.2 9.4 312 -999
2006-03-30 06:46:25 51°14.362 2°55.078 316.9 9.4 314 8.5
2006-03-30 06:46:30 51°14.372 2°55.063 317.8 9.5 315 8.4
2006-03-30 06:46:35 51°14.381 2°55.049 319.3 9.6 317 8.8
2006-03-30 06:46:40 51°14.391 2°55.035 321.9 9.7 319 8.7
2006-03-30 06:46:45 51°14.402 2°55.021 323.8 9.8 320 8.3
2006-03-30 06:46:50 51°14.413 2°55.007 325.4 10 321 8.1
2006-03-30 06:46:55 51°14.424 2°54.993 327 10.2 322 8.1
2006-03-30 06:47:00 51°14.436 2°54.98 328.3 10.3 323 8.1
2006-03-30 06:47:05 51°14.447 2°54.964 329.2 10.4 321 8.1
2006-03-30 06:47:10 51°14.458 2°54.949 328.2 10.7 319 8
2006-03-30 06:47:15 51°14.47 2°54.932 327.2 11 317 7.8
2006-03-30 06:47:20 51°14.481 2°54.914 325.9 11.4 316 7.8
2006-03-30 06:47:25 51°14.492 2°54.896 325.4 11.5 315 7.6
2006-03-30 06:47:30 51°14.504 2°54.878 324.5 11.7 315 7.6
2006-03-30 06:47:35 51°14.516 2°54.86 324.7 11.8 317 7.6
2006-03-30 06:47:40 51°14.528 2°54.843 325.5 11.9 318 7.5
2006-03-30 06:47:45 51°14.541 2°54.827 328.7 11.8 322 7.4
2006-03-30 06:47:50 51°14.555 2°54.813 333 11.7 327 7.4
2006-03-30 06:47:55 51°14.57 2°54.802 338.2 11.8 334 5.3
2006-03-30 06:48:00 51°14.586 2°54.793 343.9 11.8 338 7.2
2006-03-30 06:48:05 51°14.601 2°54.784 348.3 11.8 340 7.3
2006-03-30 06:48:10 51°14.617 2°54.776 350.5 11.9 341 7.2
2006-03-30 06:48:15 51°14.632 2°54.767 351.4 11.8 342 7.3
2006-03-30 06:48:20 51°14.648 2°54.76 351.3 11.8 342 7.2
2006-03-30 06:48:25 51°14.664 2°54.75 351.2 12 339 7.3
2006-03-30 06:48:30 51°14.679 2°54.74 349.6 12.1 339 7.2
2006-03-30 06:48:35 51°14.695 2°54.729 348.3 12.3 337 7.4
2006-03-30 06:48:40 51°14.711 2°54.72 346.7 12.2 338 7.3
2006-03-30 06:48:45 51°14.726 2°54.709 347.1 12.3 337 7.4
2006-03-30 06:48:50 51°14.742 2°54.698 346.2 12.2 337 7.3
2006-03-30 06:48:55 51°14.758 2°54.689 346.3 12.2 338 7
2006-03-30 06:49:00 51°14.774 2°54.678 346.9 12.3 338 7
2006-03-30 06:49:05 51°14.789 2°54.668 346.5 12.2 339 7.1
2006-03-30 06:49:10 51°14.805 2°54.658 347.4 12.2 338 7.1
2006-03-30 06:49:15 51°14.821 2°54.648 347.5 12.4 339 7.1
2006-03-30 06:49:20 51°14.837 2°54.639 347.6 12.3 340 7.1
2006-03-30 06:49:25 51°14.853 2°54.629 348.8 12.3 340 7.2
2006-03-30 06:49:30 51°14.869 2°54.619 348.4 12.4 339 7.2
2006-03-30 06:49:35 51°14.885 2°54.609 347.7 12.4 338 7
2006-03-30 06:49:40 51°14.901 2°54.599 347.4 12.3 339 6.8
2006-03-30 06:49:45 51°14.916 2°54.588 346.9 12.2 337 7
2006-03-30 06:49:50 51°14.932 2°54.578 346 12.1 337 7.1
2006-03-30 06:49:55 51°14.947 2°54.567 345.3 12.2 335 7
2006-03-30 06:50:00 51°14.963 2°54.555 344.7 12.3 336 6.9
2006-03-30 06:50:05 51°14.978 2°54.544 344 12.4 335 6.9
2006-03-30 06:50:10 51°14.994 2°54.532 343.7 12.3 335 6.8
2006-03-30 06:50:15 51°15.009 2°54.52 343.2 12.3 335 6.8
2006-03-30 06:50:20 51°15.024 2°54.51 342.5 12 336 6.6
2006-03-30 06:50:25 51°15.039 2°54.499 343.2 12 335 6.6
2006-03-30 06:50:30 51°15.054 2°54.488 343.2 11.9 335 6.4
2006-03-30 06:50:35 51°15.07 2°54.477 343.3 11.9 336 6.5
2006-03-30 06:50:40 51°15.085 2°54.466 343.1 11.9 335 6.5
2006-03-30 06:50:45 51°15.1 2°54.455 343.5 11.9 336 6.3
2006-03-30 06:50:50 51°15.115 2°54.445 344.8 11.9 337 6.4
2006-03-30 06:50:55 51°15.131 2°54.435 344.5 12 338 6.5
2006-03-30 06:51:00 51°15.146 2°54.426 345.3 12 338 6.3
2006-03-30 06:51:05 51°15.162 2°54.416 346.9 11.9 340 6.5
2006-03-30 06:51:10 51°15.177 2°54.408 347.1 11.9 338 6.3
2006-03-30 06:51:15 51°15.192 2°54.397 347.4 12.1 338 6.4
2006-03-30 06:51:20 51°15.208 2°54.387 347.6 12.1 339 6.6
2006-03-30 06:51:25 51°15.224 2°54.379 347.6 12.2 339 6.6
2006-03-30 06:51:30 51°15.24 2°54.37 349.3 12.1 343 6.8
2006-03-30 06:51:35 51°15.256 2°54.363 350.5 12.1 344 6.7
2006-03-30 06:51:40 51°15.273 2°54.356 352.3 12.1 346 6.6
2006-03-30 06:51:45 51°15.289 2°54.35 353.7 12.2 346 6.7
2006-03-30 06:51:50 51°15.305 2°54.342 354.1 12.2 346 6.9
2006-03-30 06:51:55 51°15.322 2°54.336 354.1 12.3 345 6.8
2006-03-30 06:52:00 51°15.338 2°54.327 353.1 12.4 342 6.9
2006-03-30 06:52:05 51°15.354 2°54.318 352 12.3 341 6.9
2006-03-30 06:52:10 51°15.37 2°54.308 347.5 12.4 339 7.1
2006-03-30 06:52:15 51°15.386 2°54.296 346.7 12.5 336 6.9
2006-03-30 06:52:20 51°15.402 2°54.286 344.7 12.5 336 6.9
2006-03-30 06:52:25 51°15.418 2°54.273 344 12.6 334 7.1
2006-03-30 06:52:30 51°15.434 2°54.261 342.8 12.6 335 7.2
2006-03-30 06:52:35 51°15.449 2°54.249 342.4 12.7 334 7.4
2006-03-30 06:52:40 51°15.466 2°54.237 343.2 12.7 336 7.6
2006-03-30 06:52:45 51°15.481 2°54.225 342.7 12.7 335 7.7
2006-03-30 06:52:50 51°15.497 2°54.214 342.8 12.7 335 7.6
2006-03-30 06:52:55 51°15.513 2°54.201 342.6 12.8 334 7.6
2006-03-30 06:53:00 51°15.529 2°54.188 341.3 12.8 332 7.9
2006-03-30 06:53:05 51°15.545 2°54.175 341 12.9 333 8.1
2006-03-30 06:53:10 51°15.561 2°54.161 340.9 13 332 8.1
2006-03-30 06:53:15 51°15.577 2°54.148 340.2 13 332 8.2
2006-03-30 06:53:20 51°15.592 2°54.134 340 13 330 8.2
2006-03-30 06:53:25 51°15.608 2°54.12 338.8 13 332 8.3
2006-03-30 06:53:30 51°15.624 2°54.106 338.3 13 330 8.2
2006-03-30 06:53:35 51°15.64 2°54.094 339.6 13 334 8.1
2006-03-30 06:53:40 51°15.657 2°54.08 341.1 13.1 332 8.2
2006-03-30 06:53:45 51°15.673 2°54.068 341.9 13.1 336 8.3
2006-03-30 06:53:50 51°15.689 2°54.056 342.7 13.2 335 8.5
2006-03-30 06:53:55 51°15.706 2°54.045 343.2 12.9 338 8
2006-03-30 06:54:00 51°15.722 2°54.032 344.7 13 335 8.2
2006-03-30 06:54:05 51°15.738 2°54.02 343.8 13 334 8.2
2006-03-30 06:54:10 51°15.755 2°54.009 342.9 12.9 334 7.9
2006-03-30 06:54:15 51°15.771 2°53.994 343.3 13 332 8.2
2006-03-30 06:54:20 51°15.786 2°53.98 341.7 13.1 332 8.3
2006-03-30 06:54:25 51°15.802 2°53.967 340.7 13 332 8.4
2006-03-30 06:54:30 51°15.818 2°53.953 341.3 12.9 332 8.7
2006-03-30 06:54:35 51°15.833 2°53.94 341 12.9 331 8.8
2006-03-30 06:54:40 51°15.849 2°53.925 340.7 13 330 9
2006-03-30 06:54:45 51°15.866 2°53.911 341.1 13 331 9.1
2006-03-30 06:54:50 51°15.881 2°53.898 340.4 13 332 8.9
2006-03-30 06:54:55 51°15.897 2°53.886 341.2 12.9 333 8.6
2006-03-30 06:55:00 51°15.913 2°53.872 342.8 12.8 333 8.8
2006-03-30 06:55:05 51°15.929 2°53.859 341.5 12.9 331 8.9
2006-03-30 06:55:10 51°15.945 2°53.844 341.6 12.9 331 9.2
2006-03-30 06:55:15 51°15.96 2°53.832 340.4 12.9 332 9.1
2006-03-30 06:55:20 51°15.977 2°53.818 342.1 12.9 333 9
2006-03-30 06:55:25 51°15.992 2°53.805 342.2 12.9 332 9
2006-03-30 06:55:30 51°16.008 2°53.792 341.6 12.8 332 9
2006-03-30 06:55:35 51°16.024 2°53.778 341.9 12.9 333 9.3
2006-03-30 06:55:40 51°16.04 2°53.766 341.8 12.9 333 9.2
2006-03-30 06:55:46 51°16.059 2°53.75 342.4 12.9 333 9.4
2006-03-30 06:55:50 51°16.071 2°53.739 342.1 13 332 9.5
2006-03-30 06:55:55 51°16.088 2°53.726 341.8 13 331 9.3
2006-03-30 06:56:00 51°16.103 2°53.711 341.3 13 331 9.5
2006-03-30 06:56:05 51°16.119 2°53.697 340.2 13 331 9.6
2006-03-30 06:56:10 51°16.134 2°53.684 339.8 13 331 9.5
2006-03-30 06:56:15 51°16.15 2°53.669 340.5 12.9 331 9.6
2006-03-30 06:56:20 51°16.166 2°53.655 340 13.1 330 9.8
2006-03-30 06:56:25 51°16.181 2°53.641 339.7 13 331 9.6
2006-03-30 06:56:30 51°16.197 2°53.627 339.9 13.1 330 9.6
2006-03-30 06:56:35 51°16.213 2°53.612 339.6 13 330 9.5
2006-03-30 06:56:40 51°16.228 2°53.597 339.6 12.9 330 9.6
2006-03-30 06:56:45 51°16.244 2°53.583 339 13 330 9.5
2006-03-30 06:56:50 51°16.259 2°53.568 338.8 13.1 328 9.5
2006-03-30 06:56:55 51°16.275 2°53.553 339 13 330 9.7
2006-03-30 06:57:00 51°16.29 2°53.538 337.8 13.1 327 9.7
2006-03-30 06:57:05 51°16.306 2°53.524 337.9 13 330 9.7
2006-03-30 06:57:10 51°16.321 2°53.508 338.2 13 329 9.6
2006-03-30 06:57:15 51°16.337 2°53.495 339 13 331 9.8
2006-03-30 06:57:20 51°16.353 2°53.481 339.2 13.1 330 9.6
2006-03-30 06:57:25 51°16.368 2°53.466 338.7 12.9 329 9.8
2006-03-30 06:57:30 51°16.383 2°53.451 339.3 12.9 329 9.8
2006-03-30 06:57:35 51°16.398 2°53.435 338 13.1 327 9.7
2006-03-30 06:57:40 51°16.414 2°53.418 336.5 13.1 327 9.9
2006-03-30 06:57:45 51°16.428 2°53.403 336 13.1 326 9.7
2006-03-30 06:57:50 51°16.444 2°53.386 335.5 13 326 9.7
2006-03-30 06:57:55 51°16.458 2°53.371 336.1 13 327 9.7
2006-03-30 06:58:00 51°16.473 2°53.354 336.6 13 327 9.9
2006-03-30 06:58:05 51°16.489 2°53.338 336.2 13.1 327 10
2006-03-30 06:58:10 51°16.504 2°53.324 336.2 13 328 9.8
2006-03-30 06:58:15 51°16.518 2°53.307 336.8 13 327 9.9
2006-03-30 06:58:20 51°16.533 2°53.291 336 13 326 9.9
2006-03-30 06:58:25 51°16.548 2°53.275 335.6 13.1 326 9.9
2006-03-30 06:58:30 51°16.563 2°53.259 335.1 13 326 9.8
2006-03-30 06:58:35 51°16.578 2°53.243 335.3 13.1 326 9.7
2006-03-30 06:58:40 51°16.593 2°53.226 335.3 13.1 326 9.7
2006-03-30 06:58:45 51°16.609 2°53.211 335.8 13.1 326 9.4
2006-03-30 06:58:50 51°16.624 2°53.195 336.5 13 327 9.7
2006-03-30 06:58:55 51°16.639 2°53.18 336.2 12.9 328 9.4
2006-03-30 06:59:00 51°16.654 2°53.165 336.7 13 326 9.4
2006-03-30 06:59:05 51°16.67 2°53.15 336.1 12.9 327 9.6
2006-03-30 06:59:10 51°16.684 2°53.133 336.1 12.9 326 9.3
2006-03-30 06:59:15 51°16.699 2°53.118 336.1 12.9 327 9.3
2006-03-30 06:59:20 51°16.714 2°53.102 335.8 12.9 326 9.3
2006-03-30 06:59:25 51°16.729 2°53.086 336 12.9 328 9.2
2006-03-30 06:59:30 51°16.745 2°53.071 336.5 13 328 9.3
2006-03-30 06:59:35 51°16.76 2°53.056 336.2 12.9 328 9.1
2006-03-30 06:59:40 51°16.775 2°53.04 336.4 12.9 327 8.9
2006-03-30 06:59:45 51°16.79 2°53.025 336.2 12.8 328 8.6
2006-03-30 06:59:50 51°16.805 2°53.01 336.2 12.8 328 8.1
2006-03-30 06:59:55 51°16.82 2°52.995 336.8 12.7 329 7.6
2006-03-30 07:00:00 51°16.835 2°52.981 337.2 12.6 328 7.1
2006-03-30 07:00:05 51°16.849 2°52.967 337.3 12.4 329 6.9
2006-03-30 07:00:10 51°16.863 2°52.953 336.9 12.1 329 6.8
2006-03-30 07:00:15 51°16.877 2°52.939 336.2 11.9 328 6.6
2006-03-30 07:00:20 51°16.891 2°52.925 336.3 11.9 328 6.6
2006-03-30 07:00:25 51°16.905 2°52.911 335.4 11.7 327 6.8
2006-03-30 07:00:30 51°16.918 2°52.896 334.1 12 325 6.9
2006-03-30 07:00:35 51°16.932 2°52.881 333.8 12 326 6.9
2006-03-30 07:00:40 51°16.946 2°52.866 333.4 12.1 326 7.2
2006-03-30 07:00:44 51°16.958 2°52.854 333.5 12.3 327 7.2
2006-03-30 07:00:50 51°16.975 2°52.836 334.8 12.4 327 7.5
2006-03-30 07:00:55 51°16.99 2°52.822 336 12.6 329 7.6
2006-03-30 07:01:00 51°17.006 2°52.809 337.6 12.5 331 7.7
2006-03-30 07:01:05 51°17.021 2°52.795 338.7 12.7 331 7.8
2006-03-30 07:01:10 51°17.037 2°52.783 339.5 12.6 333 7.9
2006-03-30 07:01:15 51°17.053 2°52.771 341.4 12.7 334 8
2006-03-30 07:01:20 51°17.069 2°52.759 342.7 12.7 337 8.1
2006-03-30 07:01:25 51°17.086 2°52.748 343.4 12.8 336 8.2
2006-03-30 07:01:30 51°17.102 2°52.736 344.3 12.9 337 8.2
2006-03-30 07:01:35 51°17.118 2°52.727 345.2 12.9 338 7.7
2006-03-30 07:01:40 51°17.135 2°52.716 345.4 12.8 338 7.5
2006-03-30 07:01:45 51°17.151 2°52.704 345.1 12.6 337 7.8
2006-03-30 07:01:50 51°17.167 2°52.693 344.4 12.7 337 7.8
2006-03-30 07:01:55 51°17.183 2°52.681 343.8 12.7 335 7.4
2006-03-30 07:02:00 51°17.199 2°52.669 343.3 12.5 336 7.4
2006-03-30 07:02:05 51°17.215 2°52.657 342.5 12.6 335 7.6
2006-03-30 07:02:10 51°17.23 2°52.647 342.6 12.4 336 7.6
2006-03-30 07:02:15 51°17.246 2°52.634 343.5 12.5 333 7.6
2006-03-30 07:02:20 51°17.262 2°52.621 342.5 12.7 333 7.9
2006-03-30 07:02:25 51°17.278 2°52.61 342.1 12.6 335 7.7
2006-03-30 07:02:30 51°17.294 2°52.598 343 12.7 335 7.9
2006-03-30 07:02:35 51°17.31 2°52.586 343.4 12.7 335 7.8
2006-03-30 07:02:40 51°17.326 2°52.576 344 12.7 336 7.9
2006-03-30 07:02:45 51°17.342 2°52.564 344.2 12.7 336 8
2006-03-30 07:02:50 51°17.359 2°52.553 344.8 12.7 337 8.2
2006-03-30 07:02:55 51°17.375 2°52.542 344.9 12.8 338 8.1
2006-03-30 07:03:00 51°17.391 2°52.531 345.3 12.9 337 8.1
2006-03-30 07:03:05 51°17.408 2°52.52 346.3 12.8 338 8.1
2006-03-30 07:03:10 51°17.424 2°52.51 345.8 12.8 337 8.2
2006-03-30 07:03:15 51°17.441 2°52.499 346.3 12.8 338 8.2
2006-03-30 07:03:20 51°17.457 2°52.488 346.6 12.8 337 8.3
2006-03-30 07:03:25 51°17.474 2°52.478 346.9 12.9 339 8.5
2006-03-30 07:03:30 51°17.491 2°52.468 346.7 12.8 338 8.5
2006-03-30 07:03:35 51°17.508 2°52.458 347.1 12.9 340 8.5
2006-03-30 07:03:40 51°17.524 2°52.448 347.6 12.8 339 8.3
2006-03-30 07:03:45 51°17.541 2°52.438 348.7 12.7 341 8.3
2006-03-30 07:03:50 51°17.558 2°52.43 348.8 12.7 341 8.4
2006-03-30 07:03:55 51°17.574 2°52.419 349.3 12.8 340 8.4
2006-03-30 07:04:00 51°17.591 2°52.412 350.4 12.7 343 8.3
2006-03-30 07:04:05 51°17.607 2°52.402 349.8 12.7 340 8.4
2006-03-30 07:04:10 51°17.624 2°52.395 350.1 12.5 345 8.5
2006-03-30 07:04:15 51°17.641 2°52.387 350.9 12.6 343 8.4
2006-03-30 07:04:20 51°17.658 2°52.382 352.7 12.6 349 8.3
2006-03-30 07:04:25 51°17.675 2°52.373 356.3 12.6 349 8.3
2006-03-30 07:04:30 51°17.692 2°52.372 356 12.5 355 8.4
2006-03-30 07:04:35 51°17.709 2°52.368 358.8 12.6 348 8.2
2006-03-30 07:04:40 51°17.727 2°52.363 0.3 12.4 352 8.3
2006-03-30 07:04:45 51°17.744 2°52.359 0.3 12.3 353 8.3
2006-03-30 07:04:50 51°17.761 2°52.356 0.7 12.5 354 8.1
2006-03-30 07:04:55 51°17.778 2°52.352 0.7 12.7 351 8.1
2006-03-30 07:05:00 51°17.796 2°52.348 1.1 12.5 353 8.1
2006-03-30 07:05:05 51°17.813 2°52.346 2.4 12.6 355 8.2
2006-03-30 07:05:10 51°17.83 2°52.344 2.9 12.5 356 8.4
2006-03-30 07:05:15 51°17.848 2°52.341 3.8 12.6 355 8.5
2006-03-30 07:05:20 51°17.865 2°52.341 4 12.5 356 8.6
2006-03-30 07:05:25 51°17.882 2°52.34 5 12.5 358 8.6
2006-03-30 07:05:30 51°17.9 2°52.338 7.6 12.7 358 8.6
2006-03-30 07:05:35 51°17.918 2°52.339 5 12.6 -999 8.4
2006-03-30 07:05:40 51°17.935 2°52.335 7.2 12.8 354 8.4
2006-03-30 07:05:45 51°17.953 2°52.334 5.6 12.6 355 8.6
2006-03-30 07:05:50 51°17.97 2°52.331 5.1 12.5 357 8.7
2006-03-30 07:05:55 51°17.988 2°52.33 4.1 12.6 358 8.5
2006-03-30 07:06:00 51°18.005 2°52.327 4.8 12.6 355 8.5
2006-03-30 07:06:05 51°18.022 2°52.328 6.6 12.7 -999 8.4
2006-03-30 07:06:10 51°18.04 2°52.324 5.8 12.6 353 8.4
2006-03-30 07:06:15 51°18.057 2°52.326 5 12.4 3 8.6
2006-03-30 07:06:20 51°18.075 2°52.323 8.1 12.8 358 8.5
2006-03-30 07:06:25 51°18.092 2°52.325 7 12.5 -999 8.5
2006-03-30 07:06:30 51°18.11 2°52.323 9.9 12.7 358 8.6
2006-03-30 07:06:35 51°18.127 2°52.324 7.9 12.6 358 8.7
2006-03-30 07:06:40 51°18.144 2°52.324 9 12.4 -999 8.8
2006-03-30 07:06:45 51°18.162 2°52.323 8.6 12.7 358 8.9
2006-03-30 07:06:50 51°18.179 2°52.32 7 12.7 355 9.1
2006-03-30 07:06:55 51°18.197 2°52.323 7.3 12.7 4 9.2
2006-03-30 07:07:00 51°18.215 2°52.319 8.6 12.9 357 9.2
2006-03-30 07:07:05 51°18.232 2°52.32 6.2 12.4 -999 9.3
2006-03-30 07:07:10 51°18.25 2°52.32 8.6 12.3 2 9.1
2006-03-30 07:07:15 51°18.267 2°52.32 9.4 12.8 -999 8.9
2006-03-30 07:07:20 51°18.285 2°52.321 7.4 12.6 1 8.7
2006-03-30 07:07:25 51°18.302 2°52.322 10.8 12.8 3 8.7
2006-03-30 07:07:30 51°18.32 2°52.32 8.3 12.8 357 9
2006-03-30 07:07:35 51°18.337 2°52.32 9.5 12.4 4 9.3
2006-03-30 07:07:40 51°18.355 2°52.319 7.2 12.7 357 9.4
2006-03-30 07:07:45 51°18.372 2°52.319 7.9 12.7 1 9.5
2006-03-30 07:07:50 51°18.39 2°52.317 6.7 12.7 356 9.6
2006-03-30 07:07:55 51°18.407 2°52.318 6.9 12.6 1 9.7
2006-03-30 07:08:00 51°18.425 2°52.314 6.9 12.6 356 9.8
2006-03-30 07:08:05 51°18.442 2°52.314 5.8 12.5 -999 9.5
2006-03-30 07:08:10 51°18.459 2°52.314 6.3 12.4 358 9.2
2006-03-30 07:08:15 51°18.477 2°52.314 6 12.6 -999 9
2006-03-30 07:08:20 51°18.495 2°52.311 6.2 12.9 355 9.2
2006-03-30 07:08:25 51°18.513 2°52.311 5.3 12.6 356 9.4
2006-03-30 07:08:30 51°18.53 2°52.309 6.5 12.6 356 9.4
2006-03-30 07:08:35 51°18.548 2°52.307 5.6 12.7 356 9.6
2006-03-30 07:08:40 51°18.565 2°52.305 5.4 12.7 358 9.8
2006-03-30 07:08:45 51°18.583 2°52.305 6.1 12.6 357 9.9
2006-03-30 07:08:50 51°18.6 2°52.304 6.8 12.7 358 10.1
2006-03-30 07:08:55 51°18.618 2°52.301 6.8 12.8 357 10.4
2006-03-30 07:09:00 51°18.636 2°52.301 6.2 12.8 358 10.4
2006-03-30 07:09:05 51°18.653 2°52.298 6.5 12.9 353 10.3
2006-03-30 07:09:10 51°18.671 2°52.299 6.8 12.7 359 10.3
2006-03-30 07:09:15 51°18.689 2°52.296 6.4 12.8 354 10.1
2006-03-30 07:09:20 51°18.706 2°52.294 5.3 12.8 356 10.1
2006-03-30 07:09:25 51°18.724 2°52.292 5.9 12.8 357 10.3
2006-03-30 07:09:30 51°18.742 2°52.291 4.7 12.8 357 10.6
2006-03-30 07:09:35 51°18.76 2°52.29 6.4 12.8 1 10.6
2006-03-30 07:09:40 51°18.777 2°52.291 5.8 12.6 358 10.5
2006-03-30 07:09:45 51°18.795 2°52.29 9.1 12.7 -999 10.6
2006-03-30 07:09:50 51°18.812 2°52.287 6.7 12.8 354 10.8
2006-03-30 07:09:55 51°18.83 2°52.287 6.8 12.6 358 10.9
2006-03-30 07:10:00 51°18.848 2°52.284 7.1 12.8 355 11.2
2006-03-30 07:10:05 51°18.865 2°52.284 5.4 12.6 358 11.3
2006-03-30 07:10:10 51°18.883 2°52.282 7.2 12.8 358 11.4
2006-03-30 07:10:16 51°18.904 2°52.281 6.5 12.8 356 11.4
2006-03-30 07:10:20 51°18.918 2°52.281 7.5 12.7 -999 11.4
2006-03-30 07:10:25 51°18.936 2°52.28 8 12.8 356 11.5
2006-03-30 07:10:30 51°18.953 2°52.28 8 12.7 -999 11.5
2006-03-30 07:10:35 51°18.971 2°52.277 7.4 12.7 358 11.7
2006-03-30 07:10:40 51°18.988 2°52.278 6.3 12.7 2 11.7
2006-03-30 07:10:45 51°19.006 2°52.277 8 12.9 357 11.7
2006-03-30 07:10:50 51°19.024 2°52.275 6.1 12.9 355 11.5
2006-03-30 07:10:55 51°19.041 2°52.271 4.8 12.7 354 11.4
2006-03-30 07:11:00 51°19.059 2°52.269 3.7 12.6 356 11.5
2006-03-30 07:11:05 51°19.077 2°52.267 4.1 12.7 356 11.7
2006-03-30 07:11:10 51°19.094 2°52.266 5.2 12.7 358 11.8
2006-03-30 07:11:15 51°19.112 2°52.264 5.7 12.7 357 12.1
2006-03-30 07:11:20 51°19.13 2°52.263 5.6 12.8 358 12.3
2006-03-30 07:11:25 51°19.147 2°52.26 5 12.8 355 12.4
2006-03-30 07:11:30 51°19.165 2°52.26 4.8 12.7 358 12.4
2006-03-30 07:11:35 51°19.182 2°52.257 5.6 12.7 355 12.7
2006-03-30 07:11:40 51°19.2 2°52.256 7.2 12.7 358 12.9
2006-03-30 07:11:45 51°19.218 2°52.255 6.5 12.8 358 13.1
2006-03-30 07:11:50 51°19.235 2°52.253 5.6 12.7 356 13.2
2006-03-30 07:11:55 51°19.253 2°52.254 8.1 12.8 4 13.3
2006-03-30 07:12:00 51°19.271 2°52.251 5.8 12.7 355 13.2
2006-03-30 07:12:05 51°19.288 2°52.252 6 12.7 1 13
2006-03-30 07:12:10 51°19.306 2°52.247 6.3 12.8 359 13
2006-03-30 07:12:15 51°19.324 2°52.248 4.3 12.5 354 13.2
2006-03-30 07:12:20 51°19.341 2°52.245 6.3 12.8 354 13
2006-03-30 07:12:25 51°19.359 2°52.244 4.4 12.8 356 13.1
2006-03-30 07:12:30 51°19.376 2°52.241 6 12.8 354 13.2
2006-03-30 07:12:35 51°19.394 2°52.24 4.7 12.8 355 13.4
2006-03-30 07:12:40 51°19.411 2°52.236 4.8 12.6 353 13.4
2006-03-30 07:12:45 51°19.429 2°52.236 4.9 12.4 358 13.6
2006-03-30 07:12:50 51°19.446 2°52.233 5.5 12.6 356 13.5
2006-03-30 07:12:55 51°19.464 2°52.233 5.6 12.6 358 13.8
2006-03-30 07:13:00 51°19.481 2°52.231 6.7 12.6 358 13.8
2006-03-30 07:13:05 51°19.499 2°52.23 6.8 12.7 356 13.8
2006-03-30 07:13:10 51°19.516 2°52.228 5.7 12.6 356 13.7
2006-03-30 07:13:15 51°19.534 2°52.227 5.7 12.5 358 14
2006-03-30 07:13:20 51°19.551 2°52.226 7.2 12.6 1 13.7
2006-03-30 07:13:26 51°19.572 2°52.227 6.4 12.5 -999 13.3
2006-03-30 07:13:30 51°19.586 2°52.224 8.6 12.6 356 13.3
2006-03-30 07:13:35 51°19.603 2°52.224 6 12.4 357 13.4
2006-03-30 07:13:40 51°19.62 2°52.222 5.9 12.5 357 13.7
2006-03-30 07:13:45 51°19.638 2°52.221 7.1 12.4 359 14.1
2006-03-30 07:13:50 51°19.655 2°52.219 6.5 12.4 356 14
2006-03-30 07:13:55 51°19.673 2°52.217 7.6 12.6 357 14.2
2006-03-30 07:14:00 51°19.69 2°52.216 5.9 12.5 357 14.4
2006-03-30 07:14:04 51°19.704 2°52.216 6.7 12.4 358 14.2
2006-03-30 07:14:10 51°19.724 2°52.212 5.2 12.6 354 14.1
2006-03-30 07:14:15 51°19.742 2°52.209 4.8 12.5 356 14.1
2006-03-30 07:14:20 51°19.759 2°52.207 5 12.6 356 14.2
2006-03-30 07:14:25 51°19.776 2°52.205 5.3 12.5 358 13.9
2006-03-30 07:14:30 51°19.794 2°52.204 4.8 12.7 354 14
2006-03-30 07:14:35 51°19.811 2°52.204 5.9 12.5 358 13.7
2006-03-30 07:14:40 51°19.829 2°52.201 5.9 12.6 355 13.9
2006-03-30 07:14:45 51°19.846 2°52.199 6.8 12.4 357 14.2
2006-03-30 07:14:50 51°19.863 2°52.197 4.9 12.7 355 14.4
2006-03-30 07:14:55 51°19.881 2°52.195 4.4 12.7 354 14.5
2006-03-30 07:15:00 51°19.898 2°52.191 5.7 12.6 355 14.6
2006-03-30 07:15:05 51°19.916 2°52.191 4.9 12.6 354 14.7
2006-03-30 07:15:10 51°19.934 2°52.19 6.5 12.7 358 14.6
2006-03-30 07:15:15 51°19.951 2°52.186 7.5 13 355 14.5
2006-03-30 07:15:20 51°19.969 2°52.186 5.1 12.9 355 14.5
2006-03-30 07:15:25 51°19.987 2°52.183 6.7 12.9 355 14.4
2006-03-30 07:15:30 51°20.005 2°52.182 5.9 12.8 356 14.4
2006-03-30 07:15:35 51°20.023 2°52.184 7.7 12.8 1 14.1
2006-03-30 07:15:40 51°20.04 2°52.182 8.1 12.9 357 14.1
2006-03-30 07:15:45 51°20.058 2°52.18 7.2 12.7 357 14.2
2006-03-30 07:15:50 51°20.076 2°52.181 8.1 12.7 -999 14.2
2006-03-30 07:15:55 51°20.093 2°52.181 8.3 12.9 359 14.3
2006-03-30 07:16:00 51°20.111 2°52.181 8.8 12.7 -999 14.1
2006-03-30 07:16:05 51°20.128 2°52.18 8.6 12.6 358 13.9
2006-03-30 07:16:10 51°20.145 2°52.182 10.7 12.5 2 13.8
2006-03-30 07:16:15 51°20.163 2°52.182 10.4 12.7 359 13.5
2006-03-30 07:16:20 51°20.18 2°52.183 10.3 12.4 2 13.4
2006-03-30 07:16:25 51°20.198 2°52.181 10.2 12.5 356 13.3
2006-03-30 07:16:30 51°20.214 2°52.182 9.5 12.4 2 13.3
2006-03-30 07:16:35 51°20.232 2°52.183 9.2 12.5 359 13.2
2006-03-30 07:16:40 51°20.249 2°52.183 10.9 12.5 1 13.1
2006-03-30 07:16:45 51°20.267 2°52.185 10.2 12.6 -999 12.7
2006-03-30 07:16:50 51°20.284 2°52.183 8.7 12.6 359 12.5
2006-03-30 07:16:55 51°20.301 2°52.183 9.2 12.5 -999 12.5
2006-03-30 07:17:00 51°20.319 2°52.182 8.7 12.4 358 12.5
2006-03-30 07:17:05 51°20.336 2°52.183 10.1 12.6 -999 12.3
2006-03-30 07:17:10 51°20.354 2°52.183 10.5 12.7 -999 12.3
2006-03-30 07:17:15 51°20.371 2°52.185 10.5 12.4 5 12.1
2006-03-30 07:17:20 51°20.388 2°52.186 10.8 12.6 1 12.1
2006-03-30 07:17:25 51°20.406 2°52.186 9.5 12.7 -999 12.3
2006-03-30 07:17:30 51°20.424 2°52.184 9 12.8 357 12.3
2006-03-30 07:17:35 51°20.441 2°52.184 7.7 12.5 -999 12.6
2006-03-30 07:17:40 51°20.458 2°52.182 8.3 12.7 359 12.9
2006-03-30 07:17:45 51°20.477 2°52.18 6.7 12.7 357 13.3
2006-03-30 07:17:50 51°20.494 2°52.179 4.6 12.4 357 13
2006-03-30 07:17:55 51°20.511 2°52.179 6.1 12.5 359 13
2006-03-30 07:18:00 51°20.529 2°52.179 8.5 12.8 -999 13.2
2006-03-30 07:18:05 51°20.546 2°52.177 8 12.8 359 13.2
2006-03-30 07:18:10 51°20.563 2°52.178 7.3 12.5 357 12.9
2006-03-30 07:18:15 51°20.581 2°52.178 9.8 12.6 2 12
2006-03-30 07:18:20 51°20.598 2°52.177 9.1 12.7 -999 12.4
2006-03-30 07:18:25 51°20.616 2°52.176 8.4 12.6 -999 12.6
2006-03-30 07:18:30 51°20.633 2°52.177 8.8 12.3 -999 12.5
2006-03-30 07:18:35 51°20.651 2°52.177 8.3 12.7 358 12.4
2006-03-30 07:18:40 51°20.668 2°52.174 8.4 12.6 357 12.4
2006-03-30 07:18:45 51°20.685 2°52.176 8.9 12.3 359 12.3
2006-03-30 07:18:50 51°20.702 2°52.176 10.8 12.5 1 12.3
2006-03-30 07:18:55 51°20.72 2°52.178 10.8 12.6 1 12.4
2006-03-30 07:19:00 51°20.737 2°52.178 8.9 12.4 -999 12.4
2006-03-30 07:19:05 51°20.754 2°52.178 11.1 12.5 3 12.4
2006-03-30 07:19:10 51°20.772 2°52.179 10.5 12.7 1 12.3
2006-03-30 07:19:15 51°20.789 2°52.18 10.5 12.5 1 12.3
2006-03-30 07:19:20 51°20.806 2°52.182 10.8 12.5 2 12.3
2006-03-30 07:19:25 51°20.824 2°52.182 10.5 12.6 1 12.4
2006-03-30 07:19:31 51°20.845 2°52.182 11.2 12.7 2 12.4
2006-03-30 07:19:35 51°20.859 2°52.182 9.6 12.8 358 12.4
2006-03-30 07:19:40 51°20.877 2°52.181 10.2 12.5 -999 12.7
2006-03-30 07:19:45 51°20.894 2°52.185 11.1 12.4 5 12.6
2006-03-30 07:19:50 51°20.912 2°52.184 10.7 12.8 357 12.6
2006-03-30 07:19:55 51°20.929 2°52.187 11.9 12.5 7 12.8
2006-03-30 07:20:00 51°20.946 2°52.187 11.5 12.4 -999 12.9
2006-03-30 07:20:05 51°20.963 2°52.189 10.1 12.3 1 13
2006-03-30 07:20:10 51°20.98 2°52.191 12.5 12.3 4 13.2
2006-03-30 07:20:15 51°20.998 2°52.195 14.5 12.5 8 13.3
2006-03-30 07:20:20 51°21.015 2°52.196 14.9 12.8 3 13.2
2006-03-30 07:20:25 51°21.032 2°52.2 14.2 12.4 4 13.8
2006-03-30 07:20:30 51°21.049 2°52.204 17.7 12.4 11 14
2006-03-30 07:20:35 51°21.065 2°52.211 19.1 12.5 15 14.1
2006-03-30 07:20:40 51°21.083 2°52.214 20.1 12.5 7 14
2006-03-30 07:20:45 51°21.1 2°52.219 18.6 12.3 10 14
2006-03-30 07:20:50 51°21.117 2°52.223 18.9 12.5 9 14.3
2006-03-30 07:20:55 51°21.133 2°52.228 18.9 12.4 8 14.3
2006-03-30 07:21:00 51°21.15 2°52.233 19.5 12.3 11 14.3
2006-03-30 07:21:05 51°21.167 2°52.236 18 12.5 5 14.7
2006-03-30 07:21:10 51°21.184 2°52.242 18 12.4 12 14.9
2006-03-30 07:21:15 51°21.201 2°52.243 17 12.5 10 14.9
2006-03-30 07:21:20 51°21.218 2°52.25 16.9 12 14 15.4
2006-03-30 07:21:25 51°21.235 2°52.253 20.7 12.8 6 15.3
2006-03-30 07:21:30 51°21.252 2°52.257 17.3 12.6 6 15.7
2006-03-30 07:21:35 51°21.268 2°52.264 19.6 11.9 16 15.8
2006-03-30 07:21:40 51°21.285 2°52.269 21.5 12.3 10 15.9
2006-03-30 07:21:45 51°21.301 2°52.277 20.3 12.4 15 15.9
2006-03-30 07:21:50 51°21.319 2°52.282 23.6 12.6 13 16.1
2006-03-30 07:21:55 51°21.336 2°52.288 21.5 12.4 13 16.3
2006-03-30 07:22:00 51°21.352 2°52.295 21.8 12.2 14 16.4
2006-03-30 07:22:05 51°21.368 2°52.301 23.3 12.3 13 16.4
2006-03-30 07:22:10 51°21.385 2°52.308 22.2 12.3 12 16.6
2006-03-30 07:22:15 51°21.401 2°52.314 23.7 12.3 13 16.6
2006-03-30 07:22:20 51°21.418 2°52.32 22.9 12.4 13 16.9
2006-03-30 07:22:25 51°21.435 2°52.327 20.6 12.4 11 17
2006-03-30 07:22:30 51°21.452 2°52.332 22.3 12.6 12 17.1
2006-03-30 07:22:35 51°21.469 2°52.34 21.2 12.5 14 17.3
2006-03-30 07:22:40 51°21.486 2°52.344 21.7 12.4 10 17.5
2006-03-30 07:22:45 51°21.503 2°52.351 22.6 12.5 14 17.6
2006-03-30 07:22:50 51°21.52 2°52.356 20.6 12.6 10 17.8
2006-03-30 07:22:55 51°21.537 2°52.362 20.7 12.5 12 18
2006-03-30 07:23:00 51°21.554 2°52.366 21 12.5 10 18.1
2006-03-30 07:23:05 51°21.57 2°52.374 19.5 12.1 11 18.4
2006-03-30 07:23:10 51°21.587 2°52.381 22.3 12.5 15 18.4
2006-03-30 07:23:15 51°21.603 2°52.387 23.7 12.2 13 18.6
2006-03-30 07:23:20 51°21.619 2°52.398 25.8 12.4 25 18.9
2006-03-30 07:23:25 51°21.636 2°52.402 22.1 12.6 5 18.4
2006-03-30 07:23:30 51°21.652 2°52.413 27.4 12.8 29 19.1
2006-03-30 07:23:35 51°21.668 2°52.419 23.2 12.3 9 18.8
2006-03-30 07:23:40 51°21.685 2°52.427 27.2 12.5 20 19.4
2006-03-30 07:23:45 51°21.702 2°52.435 23 12.4 12 19.5
2006-03-30 07:23:50 51°21.718 2°52.444 24.3 12.5 22 19.7
2006-03-30 07:23:55 51°21.735 2°52.449 24.9 12.4 11 19.9
2006-03-30 07:24:00 51°21.751 2°52.457 22.9 12 18 20.2
2006-03-30 07:24:05 51°21.767 2°52.464 24.7 12.1 16 20.2
2006-03-30 07:24:10 51°21.783 2°52.471 24.2 12.3 16 20.5
2006-03-30 07:24:15 51°21.799 2°52.48 23.8 12.2 16 20.5
2006-03-30 07:24:20 51°21.816 2°52.487 27.9 12.4 20 20.9
2006-03-30 07:24:26 51°21.836 2°52.496 23.1 12.3 16 20.7
2006-03-30 07:24:30 51°21.848 2°52.503 22.4 12.1 14 20.6
2006-03-30 07:24:35 51°21.864 2°52.511 27.6 12 23 20.7
2006-03-30 07:24:40 51°21.88 2°52.519 25.1 12.1 15 20.9
2006-03-30 07:24:45 51°21.896 2°52.526 25.4 12.1 15 21.4
2006-03-30 07:24:50 51°21.912 2°52.536 26.1 12.1 17 21.6
2006-03-30 07:24:55 51°21.929 2°52.542 26.2 12.5 15 21.7
2006-03-30 07:25:00 51°21.945 2°52.552 25.3 12.3 19 21.8
2006-03-30 07:25:06 51°21.965 2°52.559 27 12.4 19 21.9
2006-03-30 07:25:10 51°21.978 2°52.568 23.7 12.6 17 22
2006-03-30 07:25:15 51°21.994 2°52.574 23.9 12.4 18 22.1
2006-03-30 07:25:20 51°22.011 2°52.585 26.1 12.8 21 22
2006-03-30 07:25:25 51°22.029 2°52.589 23.4 12.9 10 22.1
2006-03-30 07:25:30 51°22.044 2°52.6 25.3 12.3 23 22.3
2006-03-30 07:25:35 51°22.061 2°52.607 26.6 12.5 16 22.1
2006-03-30 07:25:40 51°22.078 2°52.613 23.3 12.4 12 22.1
2006-03-30 07:25:45 51°22.095 2°52.621 23.9 12.5 18 22.1
2006-03-30 07:25:50 51°22.111 2°52.628 22.4 12.5 13 22.1
2006-03-30 07:25:55 51°22.128 2°52.636 26.1 12.4 19 22.2
2006-03-30 07:26:00 51°22.145 2°52.644 24.6 12.5 15 22.1
2006-03-30 07:26:05 51°22.161 2°52.651 22.9 12.4 13 22.1
2006-03-30 07:26:10 51°22.177 2°52.66 24.3 12.4 18 21.9
2006-03-30 07:26:15 51°22.194 2°52.666 24.8 12.6 13 21.8
2006-03-30 07:26:20 51°22.211 2°52.675 25.8 12.5 21 21.9
2006-03-30 07:26:25 51°22.226 2°52.685 25.1 12.3 15 21.8
2006-03-30 07:26:30 51°22.243 2°52.692 28.5 12.3 25 21.9
2006-03-30 07:26:35 51°22.26 2°52.702 25.3 12.7 20 21.9
2006-03-30 07:26:40 51°22.276 2°52.708 25.4 12.7 17 22.1
2006-03-30 07:26:45 51°22.292 2°52.718 24.2 12.5 12 22
2006-03-30 07:26:50 51°22.31 2°52.726 28.3 13 20 22.2
2006-03-30 07:26:55 51°22.327 2°52.732 22.9 12.9 9 22
2006-03-30 07:27:00 51°22.344 2°52.737 23.2 12.4 13 22
2006-03-30 07:27:05 51°22.361 2°52.746 22.3 12.5 16 21.8
2006-03-30 07:27:10 51°22.377 2°52.751 21.8 12.5 11 21.8
2006-03-30 07:27:15 51°22.393 2°52.763 22.3 12.5 21 21.3
2006-03-30 07:27:20 51°22.411 2°52.765 23.8 12.7 9 21.3
2006-03-30 07:27:25 51°22.427 2°52.776 23.4 12.4 11 21.4
2006-03-30 07:27:30 51°22.444 2°52.781 25.3 12.6 23 21.4
2006-03-30 07:27:35 51°22.46 2°52.792 22.3 12.6 11 21.1
2006-03-30 07:27:40 51°22.477 2°52.798 25.5 12.4 18 21.4
2006-03-30 07:27:45 51°22.493 2°52.808 23.9 12.3 17 21.1
2006-03-30 07:27:50 51°22.509 2°52.816 28.5 12.7 24 21
2006-03-30 07:27:55 51°22.527 2°52.823 24.3 12.7 11 21.3
2006-03-30 07:28:00 51°22.543 2°52.832 26.6 12.7 23 21.4
2006-03-30 07:28:05 51°22.559 2°52.84 22.8 12.4 12 20.8
2006-03-30 07:28:10 51°22.576 2°52.848 25.6 12.5 19 21.1
2006-03-30 07:28:15 51°22.593 2°52.854 23.1 12.6 12 21.2
2006-03-30 07:28:20 51°22.609 2°52.863 23.9 12.2 20 21.2
2006-03-30 07:28:25 51°22.626 2°52.871 24.4 12.3 13 21.4
2006-03-30 07:28:30 51°22.642 2°52.88 25.9 12.6 22 21
2006-03-30 07:28:35 51°22.659 2°52.888 25.6 12.5 15 21.3
2006-03-30 07:28:40 51°22.675 2°52.897 26.1 12.6 21 21.3
2006-03-30 07:28:45 51°22.692 2°52.905 24.3 12.6 18 21.2
2006-03-30 07:28:50 51°22.708 2°52.913 26.1 12.6 21 20.7
2006-03-30 07:28:55 51°22.725 2°52.921 24.3 12.7 15 21
2006-03-30 07:29:00 51°22.742 2°52.927 23.9 12.4 13 21.2
2006-03-30 07:29:05 51°22.758 2°52.939 23.3 12.4 22 21.1
2006-03-30 07:29:10 51°22.775 2°52.944 25.5 12.8 13 21
2006-03-30 07:29:15 51°22.792 2°52.957 25.7 12.7 23 20.8
2006-03-30 07:29:20 51°22.809 2°52.962 26.1 12.8 21 20.7
2006-03-30 07:29:25 51°22.825 2°52.973 23.6 12.4 16 19.8
2006-03-30 07:29:30 51°22.842 2°52.978 23.6 12.5 20 20.3
2006-03-30 07:29:35 51°22.858 2°52.99 23.8 12.6 23 21.3
2006-03-30 07:29:40 51°22.875 2°52.995 23.6 12.7 12 21.3
2006-03-30 07:29:45 51°22.891 2°53.008 26.1 12.6 24 21.2
2006-03-30 07:29:50 51°22.908 2°53.013 25.5 12.7 13 21.1
2006-03-30 07:29:55 51°22.924 2°53.025 25.1 12.5 22 21
2006-03-30 07:30:00 51°22.941 2°53.031 24.6 12.7 14 21.2
2006-03-30 07:30:06 51°22.961 2°53.042 24.6 12.6 18 20.9
2006-03-30 07:30:10 51°22.974 2°53.048 24.2 12.7 16 20.9
2006-03-30 07:30:15 51°22.991 2°53.055 23.4 12.5 16 20.8
2006-03-30 07:30:20 51°23.007 2°53.064 24.1 12.5 20 20.6
2006-03-30 07:30:25 51°23.024 2°53.072 24 12.7 14 19.8
2006-03-30 07:30:30 51°23.041 2°53.08 24.3 12.5 19 20.9
2006-03-30 07:30:35 51°23.057 2°53.088 22.7 12.4 15 21
2006-03-30 07:30:40 51°23.074 2°53.098 26.1 12.9 23 20.9
2006-03-30 07:30:44 51°23.088 2°53.102 23.8 12.8 11 20.5
2006-03-30 07:30:50 51°23.107 2°53.113 24.1 12.5 20 20.2
2006-03-30 07:30:55 51°23.124 2°53.12 24.1 12.5 15 19.9
2006-03-30 07:31:00 51°23.141 2°53.13 23.6 12.7 20 19.4
2006-03-30 07:31:05 51°23.158 2°53.135 24.6 12.8 12 19.4
2006-03-30 07:31:10 51°23.174 2°53.147 22.9 12.3 18 19.2
2006-03-30 07:31:15 51°23.191 2°53.152 25.9 12.9 12 19
2006-03-30 07:31:20 51°23.208 2°53.16 22.9 12.5 17 19
2006-03-30 07:31:25 51°23.224 2°53.168 23.4 12.4 16 18.7
2006-03-30 07:31:30 51°23.241 2°53.175 23.7 12.3 15 18.2
2006-03-30 07:31:35 51°23.256 2°53.186 24.4 12.3 22 17.2
2006-03-30 07:31:40 51°23.274 2°53.191 24.6 12.6 12 16
2006-03-30 07:31:45 51°23.289 2°53.202 24 12.3 22 17.8
2006-03-30 07:31:50 51°23.306 2°53.206 25.7 12.5 16 18.9
2006-03-30 07:31:55 51°23.322 2°53.217 22.7 12.3 12 18.9
2006-03-30 07:32:00 51°23.338 2°53.223 24.6 12.2 14 19.4
2006-03-30 07:32:05 51°23.354 2°53.232 23.4 12 18 19.3
2006-03-30 07:32:10 51°23.37 2°53.237 22.5 12 13 18.8
2006-03-30 07:32:15 51°23.386 2°53.247 22.5 12.4 20 18.4
2006-03-30 07:32:20 51°23.403 2°53.253 23 12.2 11 17.6
2006-03-30 07:32:25 51°23.418 2°53.265 25.5 12.3 25 19.3
2006-03-30 07:32:30 51°23.435 2°53.269 25 12.2 19 18.3
2006-03-30 07:32:35 51°23.45 2°53.284 25.4 12.7 29 16.8
2006-03-30 07:32:40 51°23.468 2°53.286 26.2 12.9 7 19
2006-03-30 07:32:45 51°23.483 2°53.298 22.2 12 22 19.2
2006-03-30 07:32:50 51°23.499 2°53.303 25.3 12.1 24 19.3
2006-03-30 07:32:55 51°23.515 2°53.315 24.8 12.3 23 19.1
2006-03-30 07:33:00 51°23.532 2°53.319 23.6 12.2 9 19.2
2006-03-30 07:33:04 51°23.544 2°53.328 23.2 12.1 22 19.3
2006-03-30 07:33:10 51°23.563 2°53.335 21.7 12.1 13 19.4
2006-03-30 07:33:15 51°23.579 2°53.343 23.2 12 21 19.1
2006-03-30 07:33:20 51°23.595 2°53.353 23.1 12 19 19.3
2006-03-30 07:33:25 51°23.611 2°53.361 25.6 12.2 18 19.3
2006-03-30 07:33:30 51°23.626 2°53.37 24.5 12.1 16 19.4
2006-03-30 07:33:35 51°23.643 2°53.378 25.4 12.3 15 19.5
2006-03-30 07:33:40 51°23.658 2°53.387 23 12.3 14 19.5
2006-03-30 07:33:45 51°23.675 2°53.394 24 12.1 18 19.5
2006-03-30 07:33:50 51°23.691 2°53.404 24.6 12.4 20 19.6
2006-03-30 07:33:55 51°23.707 2°53.41 24.3 12.3 14 19.5
2006-03-30 07:34:00 51°23.723 2°53.423 25.2 12.5 26 19.3
2006-03-30 07:34:05 51°23.74 2°53.426 23.7 12.3 9 19.2
2006-03-30 07:34:10 51°23.756 2°53.437 23.2 12.2 19 19.5
2006-03-30 07:34:15 51°23.774 2°53.439 21.1 12.4 7 19.5
2006-03-30 07:34:20 51°23.789 2°53.45 20.5 11.8 20 19.4
2006-03-30 07:34:25 51°23.806 2°53.456 23.2 12.1 18 19.5
2006-03-30 07:34:30 51°23.822 2°53.464 21.7 11.9 16 19.5
2006-03-30 07:34:35 51°23.837 2°53.473 22.9 12 18 19.4
2006-03-30 07:34:40 51°23.854 2°53.477 23.2 12.2 12 19.5
2006-03-30 07:34:45 51°23.869 2°53.487 23.2 11.8 22 19.6
2006-03-30 07:34:50 51°23.885 2°53.495 24.9 11.9 18 19.5
2006-03-30 07:34:55 51°23.901 2°53.504 25.4 12.3 16 19.4
2006-03-30 07:35:00 51°23.917 2°53.513 22.9 11.9 17 19.4
2006-03-30 07:35:05 51°23.933 2°53.521 26.8 12.4 20 19.5
2006-03-30 07:35:09 51°23.946 2°53.526 22.6 12.1 13 18.7
2006-03-30 07:35:15 51°23.964 2°53.539 25.7 11.8 26 19.3
2006-03-30 07:35:20 51°23.98 2°53.547 26.8 12.4 15 19.7
2006-03-30 07:35:25 51°23.996 2°53.556 25.4 12.2 22 19.7
2006-03-30 07:35:30 51°24.012 2°53.563 23 11.8 11 19.8
2006-03-30 07:35:35 51°24.028 2°53.574 26.8 12.4 26 19.6
2006-03-30 07:35:40 51°24.044 2°53.58 22.9 12.5 8 19.3
2006-03-30 07:35:45 51°24.059 2°53.588 24.6 11.6 24 19.5
2006-03-30 07:35:50 51°24.075 2°53.599 23.9 11.9 19 19
2006-03-30 07:35:55 51°24.092 2°53.606 26.6 12.6 15 19.1
2006-03-30 07:36:00 51°24.107 2°53.612 21 11.8 11 19
2006-03-30 07:36:04 51°24.119 2°53.621 25.2 11.7 23 19
2006-03-30 07:36:10 51°24.139 2°53.63 24.7 12.3 14 18.5
2006-03-30 07:36:15 51°24.155 2°53.635 22.5 12.2 16 18.8
2006-03-30 07:36:20 51°24.17 2°53.647 22.2 11.9 25 18.9
2006-03-30 07:36:25 51°24.187 2°53.647 22.2 12.2 10 18.4
2006-03-30 07:36:30 51°24.203 2°53.657 18.4 12.3 4 17.9
2006-03-30 07:36:35 51°24.219 2°53.662 19.5 11.9 11 16.9
2006-03-30 07:36:40 51°24.235 2°53.667 20.4 12.2 12 17.8
2006-03-30 07:36:45 51°24.252 2°53.671 17.7 12 8 18
2006-03-30 07:36:50 51°24.268 2°53.678 16.4 11.8 13 17.3
2006-03-30 07:36:55 51°24.285 2°53.685 20.3 12.5 17 16.8
2006-03-30 07:37:00 51°24.3 2°53.689 17.4 11.8 7 -999
2006-03-30 07:37:05 51°24.316 2°53.699 21.3 11.8 21 15.1
2006-03-30 07:37:10 51°24.333 2°53.701 19.1 12.4 6 16.1
2006-03-30 07:37:15 51°24.348 2°53.709 18.6 11.6 17 16.3
2006-03-30 07:37:20 51°24.365 2°53.715 22.7 12.2 15 16.6
2006-03-30 07:37:25 51°24.382 2°53.721 20.4 12.4 11 16
2006-03-30 07:37:29 51°24.395 2°53.725 17.7 11.8 10 14.8
2006-03-30 07:37:35 51°24.414 2°53.731 18.6 11.8 14 15.5
2006-03-30 07:37:40 51°24.431 2°53.738 18.1 12.5 13 16
2006-03-30 07:37:45 51°24.448 2°53.741 17 12.5 10 16.4
2006-03-30 07:37:50 51°24.464 2°53.746 14.9 11.9 10 16
2006-03-30 07:37:55 51°24.481 2°53.748 16.5 12.6 4 14.8
2006-03-30 07:38:00 51°24.498 2°53.753 13.1 12.1 8 15.6
2006-03-30 07:38:05 51°24.514 2°53.758 14.7 12 10 16.1
2006-03-30 07:38:10 51°24.531 2°53.762 18.1 12.3 10 16
2006-03-30 07:38:15 51°24.548 2°53.769 16.4 12.2 15 14
2006-03-30 07:38:20 51°24.564 2°53.772 17.8 12.1 7 15.2
2006-03-30 07:38:25 51°24.581 2°53.782 19.1 12.1 18 16
2006-03-30 07:38:30 51°24.598 2°53.782 16.3 12.7 1 14.4
2006-03-30 07:38:35 51°24.614 2°53.79 15.9 12.2 16 15.4
2006-03-30 07:38:40 51°24.631 2°53.792 17.2 12.3 6 16.2
2006-03-30 07:38:45 51°24.648 2°53.799 16.8 12.1 13 16.8
2006-03-30 07:38:50 51°24.664 2°53.8 16.6 12.2 5 15.9
2006-03-30 07:38:55 51°24.681 2°53.808 15.2 12.3 10 16.5
2006-03-30 07:39:00 51°24.697 2°53.809 15.6 12.2 4 17.2
2006-03-30 07:39:05 51°24.713 2°53.82 17.7 11.8 22 17.3
2006-03-30 07:39:10 51°24.729 2°53.824 17.9 12.2 9 17.1
2006-03-30 07:39:15 51°24.745 2°53.83 22.2 12.1 17 17.6
2006-03-30 07:39:20 51°24.761 2°53.836 16.6 11.6 8 17.9
2006-03-30 07:39:26 51°24.78 2°53.845 19.8 11.7 21 17.9
2006-03-30 07:39:30 51°24.794 2°53.849 19.8 12.3 10 18.2
2006-03-30 07:39:35 51°24.809 2°53.857 17.2 11.6 13 17.4
2006-03-30 07:39:40 51°24.826 2°53.861 22.4 12.2 15 15.6
2006-03-30 07:39:45 51°24.842 2°53.866 15.8 12.2 3 17
2006-03-30 07:39:50 51°24.858 2°53.872 17.3 11.8 18 17.2
2006-03-30 07:39:55 51°24.875 2°53.876 16.6 12.1 8 18.2
2006-03-30 07:40:00 51°24.891 2°53.884 16.1 12 16 18.9
2006-03-30 07:40:05 51°24.907 2°53.888 17.8 12 12 19
2006-03-30 07:40:10 51°24.924 2°53.895 18.7 12.2 14 19
2006-03-30 07:40:16 51°24.943 2°53.906 16.4 12.3 19 19
2006-03-30 07:40:20 51°24.957 2°53.904 19.9 12.3 15 19.3
2006-03-30 07:40:25 51°24.973 2°53.91 14.2 11.8 9 19.4
2006-03-30 07:40:30 51°24.99 2°53.915 15.9 12.3 12 18.3
2006-03-30 07:40:35 51°25.007 2°53.919 16.8 12.2 6 19.3
2006-03-30 07:40:40 51°25.023 2°53.924 14.9 11.9 11 19.9
2006-03-30 07:40:45 51°25.04 2°53.929 16.4 12.1 11 20.1
2006-03-30 07:40:50 51°25.056 2°53.934 16.9 12.4 10 19.4
2006-03-30 07:40:55 51°25.073 2°53.941 16.6 12.3 13 18.3
2006-03-30 07:41:00 51°25.09 2°53.946 18.8 12.5 13 19.5
2006-03-30 07:41:05 51°25.106 2°53.951 16.3 12.1 10 19.6
2006-03-30 07:41:10 51°25.123 2°53.959 18.8 12.4 17 19.3
2006-03-30 07:41:15 51°25.14 2°53.961 15.9 12.4 3 19.6
2006-03-30 07:41:20 51°25.156 2°53.969 18.1 12.3 19 19.9
2006-03-30 07:41:25 51°25.173 2°53.972 16.8 12.3 9 20.4
2006-03-30 07:41:30 51°25.19 2°53.98 18.1 12.2 18 20.6
2006-03-30 07:41:35 51°25.207 2°53.985 17.9 12.4 11 20.5
2006-03-30 07:41:40 51°25.224 2°53.992 17.3 12.4 13 20.3
2006-03-30 07:41:45 51°25.24 2°53.998 17.8 12.4 13 19.9
2006-03-30 07:41:50 51°25.257 2°54.003 18.4 12.2 13 19.9
2006-03-30 07:41:55 51°25.274 2°54.011 19.2 12.6 15 18.4
2006-03-30 07:42:00 51°25.291 2°54.015 17.7 12.5 9 19
2006-03-30 07:42:05 51°25.307 2°54.024 16.9 12 18 19.2
2006-03-30 07:42:10 51°25.324 2°54.026 18.8 12.6 7 19.2
2006-03-30 07:42:15 51°25.341 2°54.033 15.2 12.6 12 19.4
2006-03-30 07:42:20 51°25.358 2°54.037 14.5 12.2 9 19.6
2006-03-30 07:42:25 51°25.375 2°54.044 16.6 12.3 15 19.1
2006-03-30 07:42:30 51°25.392 2°54.05 18.1 12.9 13 18.9
2006-03-30 07:42:35 51°25.409 2°54.053 13.8 12.2 5 18.1
2006-03-30 07:42:40 51°25.425 2°54.061 19.8 12.2 21 18.6
2006-03-30 07:42:45 51°25.442 2°54.063 15.1 12.3 2 18.9
2006-03-30 07:42:50 51°25.457 2°54.071 17 11.8 19 19.2
2006-03-30 07:42:55 51°25.473 2°54.076 16.9 11.6 10 19.3
2006-03-30 07:43:00 51°25.489 2°54.083 20.8 12 17 18.4
2006-03-30 07:43:05 51°25.505 2°54.088 18.1 11.9 10 18.7
2006-03-30 07:43:10 51°25.521 2°54.096 17.2 11.7 15 18.8
2006-03-30 07:43:15 51°25.538 2°54.099 19.4 12 20 19
2006-03-30 07:43:20 51°25.554 2°54.107 16.7 12 14 18.9
2006-03-30 07:43:25 51°25.571 2°54.112 18 12.3 12 19
2006-03-30 07:43:30 51°25.588 2°54.116 17.1 12.2 9 19
2006-03-30 07:43:35 51°25.604 2°54.124 17 12 13 19
2006-03-30 07:43:40 51°25.621 2°54.127 18.4 12.5 8 19.3
2006-03-30 07:43:45 51°25.638 2°54.136 18.1 12.6 16 19.4
2006-03-30 07:43:50 51°25.655 2°54.138 17.1 12.4 7 19.2
2006-03-30 07:43:55 51°25.671 2°54.146 15.6 11.9 15 18.7
2006-03-30 07:44:00 51°25.688 2°54.146 16.6 12.5 5 17.6
2006-03-30 07:44:05 51°25.705 2°54.155 14.9 12.5 10 18.9
2006-03-30 07:44:10 51°25.722 2°54.156 15.2 12.4 8 19.8
2006-03-30 07:44:15 51°25.739 2°54.164 16.6 12.3 16 20.6
2006-03-30 07:44:20 51°25.755 2°54.168 17.2 12.2 8 20.8
2006-03-30 07:44:25 51°25.772 2°54.176 17.6 12.5 15 20.2
2006-03-30 07:44:30 51°25.79 2°54.177 18.2 12.6 3 20.3
2006-03-30 07:44:36 51°25.808 2°54.186 14.5 11.7 14 20.8
2006-03-30 07:44:40 51°25.821 2°54.19 18 11.9 16 20.1
2006-03-30 07:44:45 51°25.838 2°54.196 17.6 12.4 9 19.9
2006-03-30 07:44:50 51°25.855 2°54.199 16.7 12.3 10 20.8
2006-03-30 07:44:55 51°25.872 2°54.208 17.4 12.2 14 21
2006-03-30 07:45:00 51°25.889 2°54.209 17.5 12.4 6 20.9
2006-03-30 07:45:05 51°25.905 2°54.216 17 12.4 14 20.6
2006-03-30 07:45:10 51°25.922 2°54.221 15.9 12.4 10 20.3
2006-03-30 07:45:15 51°25.939 2°54.225 17.7 12.3 9 19.3
2006-03-30 07:45:20 51°25.956 2°54.23 15.8 12.6 9 19.3
2006-03-30 07:45:25 51°25.973 2°54.231 12.9 12 4 20.1
2006-03-30 07:45:30 51°25.989 2°54.239 16.5 12.4 16 20.1
2006-03-30 07:45:35 51°26.007 2°54.24 16 12.7 4 20.4
2006-03-30 07:45:40 51°26.023 2°54.251 17.1 12 19 19.8
2006-03-30 07:45:45 51°26.04 2°54.249 18.8 12.4 6 18.6
2006-03-30 07:45:50 51°26.056 2°54.255 13.5 11.7 8 19.7
2006-03-30 07:45:55 51°26.072 2°54.258 16.8 12 11 20.8
2006-03-30 07:46:00 51°26.089 2°54.263 13.2 11.9 5 21.3
2006-03-30 07:46:05 51°26.106 2°54.267 18.6 12.2 15 21.4
2006-03-30 07:46:10 51°26.121 2°54.274 15.2 11.9 9 21.3
2006-03-30 07:46:15 51°26.138 2°54.277 19.1 11.9 12 21.7
2006-03-30 07:46:20 51°26.154 2°54.283 16.2 11.8 8 22.1
2006-03-30 07:46:26 51°26.173 2°54.289 18.5 12 15 22.1
2006-03-30 07:46:30 51°26.186 2°54.295 19.5 12.1 13 21.9
2006-03-30 07:46:35 51°26.203 2°54.299 18.1 12 9 21.8
2006-03-30 07:46:40 51°26.219 2°54.308 18.8 12.1 15 22
2006-03-30 07:46:45 51°26.236 2°54.31 20.3 12.3 12 22.7
2006-03-30 07:46:50 51°26.252 2°54.322 20.8 12.2 8 23
2006-03-30 07:46:55 51°26.269 2°54.321 20.2 12.3 1 22.7
2006-03-30 07:47:00 51°26.284 2°54.332 20.5 11.6 19 22.5
2006-03-30 07:47:05 51°26.3 2°54.335 19.5 12 7 22.3
2006-03-30 07:47:10 51°26.316 2°54.344 20.6 11.9 19 22.4
2006-03-30 07:47:15 51°26.332 2°54.348 18.8 12 9 22.2
2006-03-30 07:47:20 51°26.348 2°54.356 19.7 11.7 18 22.2
2006-03-30 07:47:25 51°26.364 2°54.362 23.3 11.9 15 22.1
2006-03-30 07:47:30 51°26.38 2°54.367 20.3 12 9 22
2006-03-30 07:47:35 51°26.396 2°54.374 19.3 12.2 15 22.1
2006-03-30 07:47:40 51°26.413 2°54.38 19.4 12.3 9 22.2
2006-03-30 07:47:45 51°26.43 2°54.385 21.2 12.4 19 23.1
2006-03-30 07:47:50 51°26.446 2°54.394 17.8 12.1 10 23.5
2006-03-30 07:47:55 51°26.464 2°54.395 20 12.7 6 23.7
2006-03-30 07:48:00 51°26.481 2°54.401 16 12.4 10 24.1
2006-03-30 07:48:06 51°26.5 2°54.403 15.6 12.1 11 24.1
2006-03-30 07:48:10 51°26.512 2°54.41 14.2 11.5 12 24
2006-03-30 07:48:15 51°26.529 2°54.414 20.1 12.3 12 24.1
2006-03-30 07:48:20 51°26.546 2°54.419 16.6 12.4 3 24
2006-03-30 07:48:24 51°26.558 2°54.423 18.3 11.6 12 24.2
2006-03-30 07:48:30 51°26.578 2°54.432 19.9 12 12 24.2
2006-03-30 07:48:35 51°26.595 2°54.434 19.6 12.5 18 23.8
2006-03-30 07:48:40 51°26.611 2°54.444 18.7 11.9 18 23.4
2006-03-30 07:48:45 51°26.628 2°54.445 22.5 12.3 15 23
2006-03-30 07:48:50 51°26.643 2°54.455 18.4 12.3 2 22.4
2006-03-30 07:48:55 51°26.659 2°54.456 19.9 11.7 6 21.8
2006-03-30 07:49:00 51°26.675 2°54.467 22.7 12 22 21.5
2006-03-30 07:49:05 51°26.691 2°54.467 19.6 11.9 2 21.4
2006-03-30 07:49:10 51°26.706 2°54.479 19.9 11.1 12 20.7
2006-03-30 07:49:15 51°26.723 2°54.477 19.9 11.9 4 19.7
2006-03-30 07:49:20 51°26.738 2°54.487 20.2 11.6 20 20.9
2006-03-30 07:49:25 51°26.754 2°54.492 21.5 11.6 20 21.7
2006-03-30 07:49:30 51°26.769 2°54.5 22.4 11.6 17 22.4
2006-03-30 07:49:35 51°26.785 2°54.508 23.2 11.9 18 21.2
2006-03-30 07:49:40 51°26.801 2°54.51 21.7 11.9 8 22.3
2006-03-30 07:49:45 51°26.816 2°54.521 18.8 11.9 23 22.7
2006-03-30 07:49:50 51°26.833 2°54.522 22 12.1 9 23.4
2006-03-30 07:49:55 51°26.848 2°54.533 20 11.6 9 23.5
2006-03-30 07:50:00 51°26.864 2°54.536 20.1 11.8 11 23.7
2006-03-30 07:50:05 51°26.88 2°54.544 21 12 19 24.2
2006-03-30 07:50:10 51°26.896 2°54.548 18.8 11.5 8 24.6
2006-03-30 07:50:15 51°26.912 2°54.557 22.7 12.1 20 24.9
2006-03-30 07:50:20 51°26.929 2°54.558 18.7 12.2 3 25.4
2006-03-30 07:50:26 51°26.947 2°54.568 18.8 11.8 21 25.8
2006-03-30 07:50:30 51°26.96 2°54.571 18.8 11.8 10 26.1
2006-03-30 07:50:35 51°26.976 2°54.58 21.6 12 18 26.2
2006-03-30 07:50:40 51°26.992 2°54.585 19.8 12.1 9 26.2
2006-03-30 07:50:45 51°27.009 2°54.592 21.6 12.1 21 26.7
2006-03-30 07:50:50 51°27.024 2°54.597 18.3 12.3 7 27.2
2006-03-30 07:50:55 51°27.04 2°54.606 18.3 11.6 20 27.2
2006-03-30 07:51:00 51°27.056 2°54.611 23.1 12.4 17 27.7
2006-03-30 07:51:05 51°27.072 2°54.616 15.6 11.3 14 -999
2006-03-30 07:51:10 51°27.087 2°54.622 22.8 11.4 25 27.8
2006-03-30 07:51:15 51°27.103 2°54.63 19.7 11.7 11 27.6
2006-03-30 07:51:20 51°27.119 2°54.634 20.3 11.8 13 27.8
2006-03-30 07:51:25 51°27.135 2°54.641 19.3 11.7 12 27.9
2006-03-30 07:51:30 51°27.15 2°54.647 18.4 11.6 11 28
2006-03-30 07:51:35 51°27.166 2°54.655 21.8 12.2 18 28
2006-03-30 07:51:40 51°27.183 2°54.656 18.6 12.2 6 28.7
2006-03-30 07:51:45 51°27.198 2°54.666 18.6 11.8 20 28.6
2006-03-30 07:51:50 51°27.215 2°54.669 19.8 12 15 28.5
2006-03-30 07:51:55 51°27.231 2°54.677 17.9 11.9 15 28.3
2006-03-30 07:52:00 51°27.247 2°54.681 21.6 12.2 13 27.9
2006-03-30 07:52:05 51°27.263 2°54.689 17.2 12.2 13 27.7
2006-03-30 07:52:10 51°27.28 2°54.692 18.8 11.9 9 27.7
2006-03-30 07:52:15 51°27.296 2°54.701 18.9 12.2 18 27.8
2006-03-30 07:52:20 51°27.313 2°54.703 16.9 12.2 6 27.9
2006-03-30 07:52:25 51°27.329 2°54.711 20.3 12.3 17 28.1
2006-03-30 07:52:30 51°27.346 2°54.715 17.4 12.2 7 28.2
2006-03-30 07:52:35 51°27.362 2°54.723 19.2 12.3 19 28.2
2006-03-30 07:52:40 51°27.379 2°54.723 16.5 12.3 3 27.9
2006-03-30 07:52:45 51°27.396 2°54.734 17.6 12.5 22 28
2006-03-30 07:52:50 51°27.413 2°54.734 17.4 12.3 2 28.1
2006-03-30 07:52:55 51°27.428 2°54.744 18.6 12 22 28.1
2006-03-30 07:53:00 51°27.445 2°54.746 18.3 12.1 4 28
2006-03-30 07:53:06 51°27.464 2°54.754 18.5 11.8 19 28
2006-03-30 07:53:10 51°27.477 2°54.759 19 12.3 8 27.8
2006-03-30 07:53:15 51°27.493 2°54.764 19.4 12.2 15 28
2006-03-30 07:53:20 51°27.509 2°54.769 16.7 11.8 9 27.9
2006-03-30 07:53:25 51°27.526 2°54.777 20.1 12 17 27.7
2006-03-30 07:53:30 51°27.543 2°54.779 19 12.4 6 27.5
2006-03-30 07:53:35 51°27.559 2°54.787 17.5 12.1 16 26.4
2006-03-30 07:53:40 51°27.576 2°54.79 17.5 12.2 8 26.6
2006-03-30 07:53:45 51°27.592 2°54.798 20.1 11.9 17 27.5
2006-03-30 07:53:50 51°27.608 2°54.802 19.7 12.1 10 27
2006-03-30 07:53:55 51°27.624 2°54.809 17.9 11.7 14 26.8
2006-03-30 07:54:00 51°27.641 2°54.814 19.4 12 11 27.1
2006-03-30 07:54:05 51°27.657 2°54.818 20.1 12.2 9 26.9
2006-03-30 07:54:10 51°27.673 2°54.825 17.7 12 8 26.6
2006-03-30 07:54:15 51°27.689 2°54.829 17.1 11.7 9 26.1
2006-03-30 07:54:20 51°27.705 2°54.836 19.5 11.6 15 26.5
2006-03-30 07:54:25 51°27.72 2°54.841 19.7 11.6 15 26.5
2006-03-30 07:54:30 51°27.736 2°54.85 21.6 12.1 18 25.5
2006-03-30 07:54:35 51°27.753 2°54.853 20.4 12.2 7 25.9
2006-03-30 07:54:40 51°27.768 2°54.86 19.1 11.3 16 26.1
2006-03-30 07:54:45 51°27.785 2°54.866 20.6 11.7 11 26.3
2006-03-30 07:54:50 51°27.802 2°54.872 20.8 12.6 14 26.3
2006-03-30 07:54:55 51°27.818 2°54.874 15.9 11.6 7 26.7
2006-03-30 07:55:00 51°27.834 2°54.881 17.9 11.7 14 26.5
2006-03-30 07:55:05 51°27.85 2°54.885 19.5 12 12 25.1
2006-03-30 07:55:10 51°27.866 2°54.893 18.1 11.9 8 25.4
2006-03-30 07:55:15 51°27.882 2°54.896 19.8 12 9 25.7
2006-03-30 07:55:20 51°27.899 2°54.903 18.1 12 10 25.7
2006-03-30 07:55:24 51°27.912 2°54.904 17.2 12.2 5 25.6